sat.trackr.live / text

‹ back to catalog

STARLINK-11745 [DTC]

NORAD 64376 · 2025-127G

PAYLOAD ACTIVE UNKNOWN

§ Identity

Operator
Country
US
Launch date
2025-06-13
Launch site
AFETR
Launch vehicle
Mass (kg)
RCS (m²)

Purposes: comms

External: N2YO · Heavens-Above · Gunter

§ Orbital elements

Epoch: 2026-09-20T12:22:34.329504Z

Period
91.67 min
Inclination
42.9999°
Eccentricity
0.0000760
Mean motion
15.70843518 rev/d
Perigee alt
356.0 km
Apogee alt
357.0 km
Semi-major
6,734.6 km
B*
9.0988e-4
RAAN
350.1695°
Arg perigee
244.5038°
Mean anomaly
115.5751°
Rev number
7,414

§ Raw data

STARLINK-11745 [DTC]1 64376U 25127G   26263.51567511  .00117987  00000+0  90988-3 0  99922 64376  42.9999 350.1695 0000760 244.5038 115.5751 15.70843518 74141

JSON: /api/v1/satellites/64376 · /tle

For live sub-satellite position, see the globe view (requires WebGL).

§ Visibility from observer

Set your observer location to see the next 7 days of passes ≥ 10°. The values pass through the URL so the page stays shareable.

No JS? Fill the form by hand. The geolocation button needs JavaScript.